GW0234 Weather Reports


Display with metric or nautical units.
time (UTC)temp
F
wind
direction
speed
MPH
gust
MPH
rain 1hr
in
rain 24hr
in
rain mn
in
humidity
%
barometer
mb
20260506084623 56 315 4.0 9.0 0.06 0.25 0.17 89 1004.4
20260506083056 56 360 1.0 6.0 0.03 0.22 0.14 89 1004.3
20260506081601 56 25 1.0 5.0 0.01 0.20 0.12 89 1004.3
20260506073056 56 5 1.0 5.0 0.01 0.19 0.11 89 1004.3
20260506071559 56 304 2.0 8.0 0.02 0.19 0.11 89 1004.5
20260506061554 55 13 1.0 3.0 0.06 0.17 0.09 89 1005.2
20260506050103 54 0 0.0 1.0 0.01 0.09 0.01 87 1006.6
20260506044702 54 0 0.0 1.0 0.00 0.08 0.00 87 1006.5
20260506043108 54 0 0.0 1.0 0.00 0.08 0.00 86 1006.6
20260506041604 54 0 0.0 0.0 0.00 0.08 0.00 86 1006.8
20260506040057 54 0 0.0 2.0 0.00 0.08 0.00 86 1006.7
20260506034626 54 128 0.0 2.0 0.00 0.08 0.08 86 1006.8
20260506033104 54 0 0.0 1.0 0.00 0.08 0.08 84 1006.1
20260506031603 55 0 0.0 1.0 0.00 0.08 0.08 84 1006.7
20260506030056 55 0 0.0 2.0 0.00 0.08 0.08 84 1006.9
20260506024557 55 139 0.0 3.0 0.06 0.08 0.08 84 1007.0
20260506023111 56 136 0.0 3.0 0.07 0.08 0.08 83 1006.3
20260506021556 56 0 2.0 7.0 0.07 0.08 0.08 83 1006.4
20260506020056 58 158 4.0 10.0 0.07 0.08 0.08 81 1006.5
20260506014559 60 123 2.0 8.0 0.01 0.02 0.02 77 1007.0
20260506013058 59 0 0.0 2.0 0.00 0.01 0.01 77 1005.5
20260506011626 60 0 0.0 1.0 0.00 0.01 0.01 76 1005.5
20260506004626 61 0 0.0 1.0 0.00 0.01 0.01 74 1005.5
20260506003112 62 152 0.0 2.0 0.00 0.01 0.01 73 1005.7
20260506001559 63 0 0.0 2.0 0.00 0.01 0.01 72 1005.8
20260506000058 64 0 0.0 1.0 0.00 0.01 0.01 70 1005.8
20260505234632 65 0 0.0 2.0 0.00 0.01 0.01 69 1005.8
20260505233109 66 0 0.0 1.0 0.00 0.01 0.01 67 1005.9
20260505231600 67 0 0.0 2.0 0.00 0.01 0.01 65 1006.1
20260505224557 68 0 0.0 7.0 0.00 0.01 0.01 62 1005.8
20260505223057 69 19 4.0 14.0 0.00 0.01 0.01 59 1005.8
20260505221558 69 20 4.0 20.0 0.00 0.01 0.01 59 1006.0
20260505220105 69 360 3.0 11.0 0.00 0.01 0.01 61 1005.8
20260505214605 69 331 4.0 9.0 0.00 0.01 0.01 60 1005.6
20260505213104 69 65 4.0 16.0 0.00 0.01 0.01 60 1005.6
20260505211603 69 318 3.0 10.0 0.00 0.01 0.01 59 1005.6
20260505210056 69 315 3.0 11.0 0.00 0.01 0.01 58 1005.6
20260505204603 69 5 1.0 9.0 0.00 0.01 0.01 59 1005.7
20260505203100 69 340 2.0 7.0 0.00 0.01 0.01 60 1006.0
20260505201602 68 15 2.0 10.0 0.00 0.01 0.01 59 1006.3
20260505194556 68 55 2.0 12.0 0.00 0.01 0.01 58 1006.7
20260505193100 69 346 3.0 11.0 0.00 0.01 0.01 56 1006.8
20260505191601 69 355 3.0 15.0 0.00 0.01 0.01 55 1006.7
20260505190058 71 7.0 14.0 0.00 0.01 0.01 56 1006.4
20260505184602 71 34 7.0 14.0 0.00 0.01 0.01 55 1006.3
20260505183058 70 351 8.0 16.0 0.00 0.01 0.01 57 1006.1
20260505181600 69 5 2.0 11.0 0.00 0.01 0.01 56 1006.2
20260505180103 70 317 2.0 11.0 0.00 0.01 0.01 55 1006.2
20260505174611 71 110 3.0 17.0 0.00 0.01 0.01 55 1006.1
20260505173056 71 305 4.0 15.0 0.00 0.01 0.01 55 1006.0
20260505171556 71 16 4.0 15.0 0.00 0.01 0.01 56 1006.0
20260505170137 71 322 4.0 19.0 0.00 0.01 0.01 56 1005.8
20260505164558 71 350 3.0 16.0 0.00 0.01 0.01 57 1005.8
20260505163056 70 69 3.0 17.0 0.00 0.01 0.01 57 1006.2
20260505161602 68 325 6.0 17.0 0.00 0.01 0.01 60 1006.4
20260505153058 67 341 6.0 16.0 0.00 0.01 0.01 60 1006.5
20260505151558 68 19 3.0 12.0 0.00 0.01 0.01 59 1006.2
20260505130112 66 333 7.0 18.0 0.00 0.01 0.01 64 1006.4
20260505124617 65 325 3.0 15.0 0.00 0.01 0.01 65 1006.4
20260505123116 64 335 4.0 13.0 0.00 0.01 0.01 66 1006.3
20260505121555 63 49 5.0 13.0 0.00 0.01 0.01 67 1006.3
20260505120059 63 338 4.0 17.0 0.00 0.01 0.01 67 1006.2
20260505114613 63 5 5.0 12.0 0.00 0.01 0.01 68 1006.1
20260505113058 62 11 5.0 14.0 0.00 0.01 0.01 68 1006.1
20260505111607 62 328 3.0 14.0 0.00 0.01 0.01 69 1005.9
20260505101557 60 24 4.0 11.0 0.01 0.01 0.01 71 1005.3
20260505100057 60 12 4.0 10.0 0.01 0.01 0.01 72 1005.2
20260505094555 60 345 3.0 10.0 0.01 0.01 0.01 72 1005.0
20260505093058 61 0 3.0 11.0 0.01 0.01 0.01 71 1004.9
20260505091558 62 360 5.0 13.0 0.00 0.00 0.00 68 1004.8
20260505090101 62 59 5.0 11.0 0.00 0.00 0.00 68 1005.0